Date String (YYYY-MM-DD hh:mm:ss) UTC,Instrument flags,Ambient pressure (hPa),Sample flow (lpm),Bypass flow (lpm),Sample temperature (°C),Ambient temperature (°C),ASC tube jacket temperature (°C),LED temperature (°C),Box temperature (°C),Sample RH (%),Span deviation,Mass concentration (μg/m³),Mass concentration (μg/m³),Mass concentration (μg/m³)
DateTimeUTC,F1_M11,P_M11,Q1_M11,Q2_M11,T1_M11,T2_M11,T3_M11,T4_M11,T5_M11,U1_M11,ZSPAN_M11,X0_M11,X2_M11,X1_M11
2022-11-16 18:00:00,,0835.0,5.01,0.00,22.4,20.9,00.0,31.3,24.2,09.1,0000.0,0008.55,0003.48,0003.15
2022-11-16 18:01:00,,0835.0,5.01,0.00,22.4,21.0,00.0,31.3,24.2,08.9,0000.0,0008.36,0003.49,0003.15
2022-11-16 18:02:00,,0835.1,5.00,0.00,22.4,21.0,00.0,31.3,24.2,08.7,0000.0,0008.15,0003.55,0003.21
2022-11-16 18:03:00,,0835.0,5.00,0.00,22.4,21.1,00.0,31.3,24.3,08.7,0000.0,0008.19,0003.59,0003.24
2022-11-16 18:04:00,,0835.1,5.00,0.00,22.4,21.1,00.0,31.3,24.3,08.6,0000.0,0008.13,0003.60,0003.27
2022-11-16 18:05:00,,0835.1,5.00,0.00,22.4,21.1,00.0,31.3,24.3,08.4,0000.0,0008.17,0003.59,0003.25
2022-11-16 18:06:00,,0835.0,5.00,0.00,22.4,21.2,00.0,31.3,24.3,08.3,0000.0,0008.16,0003.57,0003.22
2022-11-16 18:07:00,,0835.1,5.00,0.00,22.4,21.2,00.0,31.3,24.3,08.3,0000.0,0008.02,0003.54,0003.21
2022-11-16 18:08:00,,0835.0,5.00,0.00,22.4,21.2,00.0,31.3,24.3,07.9,0000.0,0007.59,0003.53,0003.19
2022-11-16 18:09:00,,0835.0,5.00,0.00,22.4,21.2,00.0,31.3,24.3,08.2,0000.0,0007.52,0003.51,0003.17
2022-11-16 18:10:00,,0835.0,5.00,0.00,22.4,21.3,00.0,31.3,24.3,08.5,0000.0,0006.11,0003.47,0003.16
2022-11-16 18:11:00,,0835.0,5.01,0.00,22.4,21.2,00.0,31.3,24.3,08.5,0000.0,0005.35,0003.46,0003.16
2022-11-16 18:12:00,,0835.0,5.00,0.00,22.4,21.2,00.0,31.3,24.3,08.4,0000.0,0005.35,0003.45,0003.15
2022-11-16 18:13:00,,0835.0,5.00,0.00,22.4,21.2,00.0,31.3,24.3,08.4,0000.0,0005.23,0003.40,0003.11
2022-11-16 18:14:00,,0835.0,5.00,0.00,22.4,21.2,00.0,31.3,24.3,08.3,0000.0,0005.19,0003.37,0003.03
2022-11-16 18:15:00,,0835.0,5.00,0.00,22.4,21.2,00.0,31.3,24.3,08.6,0000.0,0005.17,0003.33,0002.94
2022-11-16 18:16:00,,0834.9,5.00,0.00,22.4,21.2,00.0,31.3,24.3,08.4,0000.0,0005.21,0003.33,0002.94
2022-11-16 18:17:00,,0835.0,4.98,0.00,22.4,21.2,00.0,31.3,24.3,08.4,0000.0,0005.59,0003.34,0002.94
2022-11-16 18:18:00,,0835.0,4.99,0.00,22.4,21.1,00.0,31.3,24.3,08.2,0000.0,0005.65,0003.32,0002.92
2022-11-16 18:19:00,,0835.0,5.01,0.00,22.4,21.0,00.0,31.3,24.3,08.1,0000.0,0005.54,0003.26,0002.87
2022-11-16 18:20:00,,0835.0,5.01,0.00,22.4,21.0,00.0,31.3,24.3,08.0,0000.0,0005.42,0003.22,0002.81
2022-11-16 18:21:00,,0835.0,5.00,0.00,22.4,21.0,00.0,31.3,24.2,08.2,0000.0,0005.20,0003.18,0002.73
2022-11-16 18:22:00,,0835.0,5.01,0.00,22.4,21.1,00.0,31.3,24.3,08.3,0000.0,0004.99,0003.12,0002.65
2022-11-16 18:23:00,,0835.0,4.99,0.00,22.4,21.1,00.0,31.3,24.3,08.5,0000.0,0004.75,0003.01,0002.57
2022-11-16 18:24:00,,0834.9,4.99,0.00,22.4,21.1,00.0,31.3,24.3,08.5,0000.0,0004.64,0002.94,0002.50
2022-11-16 18:25:00,,0835.0,5.01,0.00,22.4,21.2,00.0,31.3,24.3,08.2,0000.0,0004.49,0002.85,0002.44
2022-11-16 18:26:00,,0834.9,5.00,0.00,22.4,21.2,00.0,31.3,24.3,08.2,0000.0,0004.40,0002.80,0002.41
2022-11-16 18:27:00,,0835.0,5.00,0.00,22.4,21.2,00.0,31.3,24.3,08.3,0000.0,0004.32,0002.77,0002.39
2022-11-16 18:28:00,,0834.9,5.00,0.00,22.4,21.2,00.0,31.3,24.3,08.1,0000.0,0004.19,0002.76,0002.38
2022-11-16 18:29:00,,0834.9,5.00,0.00,22.4,21.2,00.0,31.3,24.3,07.9,0000.0,0004.21,0002.74,0002.37
2022-11-16 18:30:00,,0834.9,5.00,0.00,22.4,21.1,00.0,31.3,24.3,08.1,0000.0,0004.12,0002.74,0002.36
2022-11-16 18:31:00,,0834.9,5.00,0.00,22.4,21.2,00.0,31.3,24.3,07.8,0000.0,0004.17,0002.76,0002.36
2022-11-16 18:32:00,,0834.9,5.00,0.00,22.4,21.2,00.0,31.3,24.3,08.0,0000.0,0004.09,0002.73,0002.37
2022-11-16 18:33:00,,0834.8,4.99,0.00,22.4,21.3,00.0,31.3,24.3,08.2,0000.0,0004.07,0002.73,0002.36
2022-11-16 18:34:00,,0834.8,5.00,0.00,22.4,21.3,00.0,31.3,24.3,08.3,0000.0,0004.20,0002.73,0002.33
2022-11-16 18:35:00,,0834.8,5.00,0.00,22.5,21.3,00.0,31.3,24.3,08.4,0000.0,0004.31,0002.69,0002.28
2022-11-16 18:36:00,,0834.7,5.00,0.00,22.5,21.2,00.0,31.3,24.3,08.3,0000.0,0004.41,0002.71,0002.26
2022-11-16 18:37:00,,0834.7,4.99,0.00,22.5,21.2,00.0,31.3,24.3,08.3,0000.0,0004.46,0002.74,0002.27
2022-11-16 18:38:00,,0834.7,5.01,0.00,22.4,21.1,00.0,31.3,24.3,08.1,0000.0,0004.43,0002.72,0002.26
2022-11-16 18:39:00,,0834.7,5.01,0.00,22.4,21.0,00.0,31.3,24.2,08.3,0000.0,0004.12,0002.66,0002.26
2022-11-16 18:40:00,,0834.7,5.00,0.00,22.4,21.1,00.0,31.3,24.2,08.5,0000.0,0003.91,0002.69,0002.29
2022-11-16 18:41:00,,0834.7,4.99,0.00,22.4,21.1,00.0,31.3,24.3,08.3,0000.0,0004.92,0002.79,0002.33
2022-11-16 18:42:00,,0834.7,4.99,0.00,22.4,21.1,00.0,31.3,24.3,08.2,0000.0,0005.61,0002.85,0002.38
2022-11-16 18:43:00,,0834.7,5.01,0.00,22.4,21.1,00.0,31.3,24.3,08.2,0000.0,0005.58,0002.87,0002.40
2022-11-16 18:44:00,,0834.6,5.01,0.00,22.4,21.2,00.0,31.3,24.3,08.2,0000.0,0005.68,0002.92,0002.42
2022-11-16 18:45:00,,0834.7,5.00,0.00,22.4,21.2,00.0,31.3,24.3,08.2,0000.0,0005.68,0002.98,0002.49
2022-11-16 18:46:00,,0834.7,4.98,0.00,22.5,21.3,00.0,31.3,24.4,08.3,0000.0,0005.66,0003.04,0002.57
2022-11-16 18:47:00,,0834.7,5.00,0.00,22.5,21.3,00.0,31.3,24.4,08.1,0000.0,0005.70,0003.08,0002.63
2022-11-16 18:48:00,,0834.7,5.01,0.00,22.5,21.2,00.0,31.3,24.4,08.1,0000.0,0005.59,0003.07,0002.67
2022-11-16 18:49:00,,0834.7,5.00,0.00,22.5,21.2,00.0,31.3,24.4,08.1,0000.0,0005.52,0003.07,0002.69
2022-11-16 18:50:00,,0834.7,5.01,0.00,22.5,21.2,00.0,31.3,24.3,08.2,0000.0,0005.55,0003.10,0002.72
2022-11-16 18:51:00,,0834.6,5.00,0.00,22.4,21.1,00.0,31.4,24.3,08.1,0000.0,0005.50,0003.10,0002.74
2022-11-16 18:52:00,,0834.6,4.98,0.00,22.4,21.2,00.0,31.3,24.3,08.1,0000.0,0004.75,0003.07,0002.77
2022-11-16 18:53:00,,0834.6,5.01,0.00,22.4,21.2,00.0,31.3,24.3,08.2,0000.0,0003.96,0003.07,0002.79
2022-11-16 18:54:00,,0834.6,5.01,0.00,22.5,21.3,00.0,31.3,24.3,08.2,0000.0,0004.04,0003.11,0002.82
2022-11-16 18:55:00,,0834.6,5.01,0.00,22.5,21.2,00.0,31.3,24.4,08.1,0000.0,0004.14,0003.12,0002.86
2022-11-16 18:56:00,,0834.5,5.00,0.00,22.5,21.2,00.0,31.4,24.3,08.1,0000.0,0004.08,0003.11,0002.87
2022-11-16 18:57:00,,0834.5,4.99,0.00,22.5,21.1,00.0,31.4,24.3,08.2,0000.0,0003.98,0003.10,0002.86
2022-11-16 18:58:00,,0834.4,4.99,0.00,22.4,21.1,00.0,31.3,24.3,08.3,0000.0,0004.27,0003.09,0002.86
2022-11-16 18:59:00,,0834.5,4.99,0.00,22.4,21.1,00.0,31.3,24.3,08.5,0000.0,0004.41,0003.11,0002.89
